Weather History for Tel Aviv, Israel

Change the Weather History Date:

Wednesday, January 9, 2013

  Actual Average Record
Temperature  
Mean Temperature 48 °F -  
Max Temperature 55 °F 61 °F 69 °F (1997)
Min Temperature 42 °F 47 °F 42 °F (2013)
Degree Days  
Heating Degree Days 16    
Moisture  
Dew Point 37 °F    
Average Humidity 64    
Maximum Humidity 81    
Minimum Humidity 38    
Precipitation  
Precipitation 0.16 in - - ()
Sea Level Pressure  
Sea Level Pressure 29.91 in    
Wind  
Wind Speed 16 mph ()    
Max Wind Speed 32 mph    
Max Gust Speed 52 mph    
Visibility 5.8 miles    
Events Rain , Thunderstorm    
Averages and records for this station are not official NWS values.
T = Trace of Precipitation, MM = Missing Value Source: Averaged Metar Reports

Daily Weather History Graph

Daily Weather History Graph

Search for Another Location

Airport:

Trip Planner

Search our weather history database for the weather conditions in past years. The results will help you decide how hot, cold, wet, or windy it might be!

Date:

Astronomy

Jan. 09, 2013 Rise Set
Actual Time 6:41 AM IST 4:53 PM IST
Civil Twilight 6:15 AM IST 5:20 PM IST
Nautical Twilight 5:45 AM IST 5:50 PM IST
Astronomical Twilight 5:15 AM IST 6:20 PM IST
Moon 3:58 AM IST (1/9) 2:33 PM IST (1/9)
Length of Visible Light 11h 04m
Length of Day
10h 11m
Waning Crescent, 8% of the Moon is Illuminated
Jan 9
Waning Crescent
Jan 11
New
Jan 19
First Quarter
Jan 27
Full
Feb 3
Last Quarter

Hourly Weather History & Observations

Time (IST) Temp. Windchill Dew Point Humidity Pressure Visibility Wind Dir Wind Speed Gust Speed Precip Events Conditions
12:50 AM 50.0 °F - 41.0 °F 71% 29.83 in 6.2 mi West 10.4 mph - N/A Rain Light Rain
1:50 AM 50.0 °F - 42.8 °F 76% 29.83 in 6.2 mi West 8.1 mph - N/A Rain Light Rain
2:00 AM 50 °F - 42 °F 65% 29.83 in 6 mi West 8.1 mph - - Rain Light Rain
2:50 AM 50.0 °F - 42.8 °F 76% 29.80 in 6.2 mi WSW 6.9 mph - N/A   Scattered Clouds
2:54 AM 50.0 °F - 42.8 °F 76% 29.83 in 4.3 mi WSW 9.2 mph 24.2 mph N/A Rain Rain
3:10 AM 50.0 °F - 42.8 °F 76% 29.80 in 6.2 mi West 11.5 mph - N/A Rain Light Rain
3:50 AM 51.8 °F - 41.0 °F 67% 29.80 in 6.2 mi West 17.3 mph 28.8 mph N/A Rain Light Rain
4:50 AM 53.6 °F - 37.4 °F 54% 29.77 in 6.2 mi West 23.0 mph 34.5 mph N/A   Mostly Cloudy
5:50 AM 55.4 °F - 39.2 °F 54% 29.80 in 6.2 mi West 24.2 mph 35.7 mph N/A   Mostly Cloudy
6:50 AM 51.8 °F - 37.4 °F 58% 29.83 in 6.2 mi West 25.3 mph 38.0 mph N/A Rain Light Rain
7:50 AM 51.8 °F - 37.4 °F 58% 29.86 in 6.2 mi West 17.3 mph 28.8 mph N/A   Mostly Cloudy
8:50 AM 50.0 °F - 37.4 °F 62% 29.86 in 6.2 mi WNW 20.7 mph 32.2 mph N/A   Mostly Cloudy
9:50 AM 50.0 °F - 37.4 °F 62% 29.89 in 5.6 mi West 20.7 mph 38.0 mph N/A Rain Light Rain
10:50 AM 51.8 °F - 35.6 °F 54% 29.86 in 6.2 mi WSW 26.5 mph 43.7 mph N/A   Mostly Cloudy
11:06 AM 53.6 °F - 37.4 °F 54% 29.86 in 6.2 mi West 20.7 mph 32.2 mph N/A   Mostly Cloudy
11:18 AM 51.8 °F - 35.6 °F 54% 29.86 in 6.2 mi West 32.2 mph 43.7 mph N/A   Mostly Cloudy
11:50 AM 51.8 °F - 39.2 °F 62% 29.86 in 6.2 mi West 23.0 mph 35.7 mph N/A   Mostly Cloudy
12:50 PM 51.8 °F - 39.2 °F 62% 29.86 in 6.2 mi West 26.5 mph 38.0 mph N/A   Mostly Cloudy
1:50 PM 53.6 °F - 35.6 °F 51% 29.86 in 6.2 mi West 27.6 mph 39.1 mph N/A   Mostly Cloudy
2:00 PM 53 °F - 35 °F 38% 29.87 in 6 mi West 27.6 mph - -   Partly Cloudy
2:50 PM 51.8 °F - 39.2 °F 62% 29.86 in 6.2 mi West 23.0 mph 34.5 mph N/A   Mostly Cloudy
3:31 PM 50.0 °F - 35.6 °F 58% 29.86 in 6.2 mi West 32.2 mph 46.0 mph N/A   Mostly Cloudy
3:50 PM 51.8 °F - 33.8 °F 50% 29.86 in 6.2 mi West 28.8 mph 51.8 mph N/A   Scattered Clouds
4:42 PM 44.6 °F 34.6 °F 35.6 °F 71% 29.92 in - West 31.1 mph 49.5 mph N/A Rain , Thunderstorm Thunderstorms and Rain
4:43 PM 44.6 °F 34.6 °F 35.6 °F 71% 29.92 in 1.9 mi West 31.1 mph 49.5 mph N/A Rain , Thunderstorm Thunderstorms and Rain
4:50 PM 42.8 °F 32.7 °F 37.4 °F 81% 29.92 in 1.9 mi West 27.6 mph 51.8 mph N/A Rain , Thunderstorm Thunderstorms and Rain
5:10 PM 46.4 °F 38.3 °F 39.2 °F 76% 29.89 in 6.2 mi West 23.0 mph 34.5 mph N/A   Mostly Cloudy
5:50 PM 44.6 °F 35.1 °F 35.6 °F 71% 29.92 in 6.2 mi West 27.6 mph 41.4 mph N/A Rain Light Rain
6:20 PM 44.6 °F 37.2 °F 37.4 °F 76% 29.95 in 5.6 mi WNW 17.3 mph 33.4 mph N/A Rain Rain
6:45 PM 44.6 °F 36.9 °F 35.6 °F 71% 29.98 in 6.2 mi West 18.4 mph 29.9 mph N/A   Mostly Cloudy
6:50 PM 44.6 °F 37.4 °F 37.4 °F 76% 29.98 in 6.2 mi West 16.1 mph 27.6 mph N/A   Mostly Cloudy
7:15 PM 46.4 °F 40.4 °F 33.8 °F 62% 29.98 in 6.2 mi West 13.8 mph - N/A   Mostly Cloudy
7:50 PM 46.4 °F 39.5 °F 33.8 °F 62% 29.98 in 6.2 mi West 17.3 mph - N/A   Mostly Cloudy
8:00 PM 46 °F - 34 °F 53% 29.99 in 6 mi West 17.3 mph - -   Partly Cloudy
8:12 PM - - - N/A% 29.98 in 6.2 mi NW 17.3 mph 28.8 mph N/A   Mostly Cloudy
8:14 PM 46.4 °F 39.5 °F 35.6 °F 66% 29.98 in 6.2 mi NW 17.3 mph 28.8 mph N/A   Mostly Cloudy
8:22 PM 44.6 °F 36.9 °F 35.6 °F 71% 29.98 in 3.7 mi NW 18.4 mph 32.2 mph N/A Rain Rain
8:29 PM 44.6 °F 36.4 °F 35.6 °F 71% 29.98 in 2.5 mi NW 20.7 mph 35.7 mph N/A Rain , Thunderstorm Heavy Thunderstorms and Rain
8:46 PM 44.6 °F 38.8 °F 35.6 °F 71% 30.01 in 6.2 mi WNW 11.5 mph - N/A   Mostly Cloudy
8:50 PM 44.6 °F 38.8 °F 35.6 °F 71% 30.01 in 6.2 mi WNW 11.5 mph - N/A   Mostly Cloudy
9:50 PM 46.4 °F 41.5 °F 33.8 °F 62% 30.01 in 6.2 mi West 10.4 mph - N/A   Mostly Cloudy
10:00 PM 46.4 °F 39.5 °F 33.8 °F 62% 30.01 in 6.2 mi NW 17.3 mph 28.8 mph N/A Rain Rain
10:18 PM 44.6 °F 38.8 °F 35.6 °F 71% 30.01 in 6.2 mi West 11.5 mph - N/A   Mostly Cloudy
10:50 PM 44.6 °F 40.2 °F 33.8 °F 66% 30.01 in 6.2 mi WNW 8.1 mph - N/A   Scattered Clouds
11:12 PM 44.6 °F 37.2 °F 32.0 °F 61% 30.04 in 6.2 mi West 17.3 mph 31.1 mph N/A Rain Rain
11:25 PM 44.6 °F 38.1 °F 32.0 °F 61% 30.04 in 6.2 mi West 13.8 mph - N/A   Mostly Cloudy
11:50 PM 46.4 °F 41.9 °F 33.8 °F 62% 30.04 in 6.2 mi WNW 9.2 mph - N/A   Mostly Cloudy